Location: Sortland
(68.7020°N, 15.4240°E)
Time: 23:49:33
(UTC+01:00)

Envisat - Pass Details

Date: 30 October 2019
Orbit: 764 x 766 km, 98.1° (Epoch: 20 November)

Event Time Altitude Azimuth Distance (km) Brightness Sun altitude
Rises 19:04:26 0° 205° (SSW) 3,233 6.4 -20.3°
Reaches altitude 10° 19:07:07 10° 218° (SW) 2,310 5.8 -20.6°
Maximum altitude 19:11:19 26° 274° (W) 1,499 5.3 -20.9°
Drops below altitude 10° 19:15:34 10° 330° (NNW) 2,320 6.1 -21.3°
Sets 19:18:16 0° 344° (NNW) 3,250 6.7 -21.5°
